TimeEDT,TemperatureF,Dew PointF,Humidity,Sea Level PressureIn,VisibilityMPH,Wind Direction,Wind SpeedMPH,Gust SpeedMPH,PrecipitationIn,Events,Conditions,WindDirDegrees,DateUTC
12:54 AM,37.9,30.0,73,30.06,10.0,West,8.1,-,N/A,,Overcast,270,2013-10-24 04:54:00
1:54 AM,37.9,30.0,73,30.06,10.0,West,9.2,-,N/A,,Overcast,260,2013-10-24 05:54:00
2:54 AM,37.9,30.9,76,30.06,10.0,West,9.2,-,N/A,,Overcast,280,2013-10-24 06:54:00
3:54 AM,37.9,30.9,76,30.07,10.0,West,8.1,-,N/A,,Overcast,280,2013-10-24 07:54:00
4:54 AM,37.9,30.9,76,30.06,10.0,West,8.1,-,N/A,,Overcast,260,2013-10-24 08:54:00
5:54 AM,37.0,30.9,79,30.07,10.0,WSW,5.8,-,N/A,,Overcast,250,2013-10-24 09:54:00
6:54 AM,37.0,32.0,82,30.09,10.0,WSW,5.8,-,N/A,,Overcast,240,2013-10-24 10:54:00
7:54 AM,36.0,30.9,82,30.09,10.0,WSW,6.9,-,N/A,,Mostly Cloudy,240,2013-10-24 11:54:00
8:54 AM,36.0,30.9,82,30.11,10.0,WSW,9.2,-,N/A,,Overcast,250,2013-10-24 12:54:00
9:24 AM,37.4,32.0,81,30.10,10.0,WSW,6.9,-,N/A,Rain,Light Rain,250,2013-10-24 13:24:00
9:54 AM,37.0,32.0,82,30.13,10.0,West,6.9,-,N/A,Rain,Light Rain,260,2013-10-24 13:54:00
10:15 AM,37.4,32.0,81,30.12,10.0,West,10.4,-,N/A,Rain,Light Rain,270,2013-10-24 14:15:00
10:54 AM,37.9,33.1,83,30.14,10.0,WSW,9.2,-,N/A,Rain,Light Rain,250,2013-10-24 14:54:00
11:03 AM,37.4,33.8,87,30.12,10.0,WSW,8.1,-,N/A,Rain,Light Rain,240,2013-10-24 15:03:00
11:15 AM,37.4,33.8,87,30.12,10.0,WSW,9.2,-,N/A,Rain,Light Rain,250,2013-10-24 15:15:00
11:54 AM,39.9,34.0,79,30.14,10.0,WSW,9.2,-,N/A,Rain,Light Rain,240,2013-10-24 15:54:00
12:54 PM,36.0,33.1,89,30.16,5.0,WNW,8.1,-,N/A,Rain,Light Rain,290,2013-10-24 16:54:00
1:06 PM,37.4,33.8,87,30.14,5.0,WNW,9.2,-,N/A,Rain,Light Rain,290,2013-10-24 17:06:00
1:11 PM,37.4,33.8,87,30.14,5.0,WNW,9.2,-,N/A,Rain,Light Rain,290,2013-10-24 17:11:00
1:39 PM,37.4,35.6,93,30.14,10.0,West,13.8,-,N/A,Rain,Light Rain,280,2013-10-24 17:39:00
1:54 PM,37.9,35.1,89,30.16,10.0,West,10.4,-,N/A,,Light Drizzle,280,2013-10-24 17:54:00
2:54 PM,39.0,34.0,82,30.16,10.0,WNW,10.4,-,N/A,Rain,Light Rain,290,2013-10-24 18:54:00
3:52 PM,37.4,32.0,81,30.16,10.0,WNW,11.5,-,N/A,Rain,Light Rain,300,2013-10-24 19:52:00
3:54 PM,37.9,33.1,83,30.18,10.0,West,11.5,-,N/A,Rain,Light Rain,280,2013-10-24 19:54:00
4:11 PM,39.2,33.8,81,30.17,10.0,West,13.8,-,N/A,,Overcast,280,2013-10-24 20:11:00
4:31 PM,37.4,32.0,81,30.18,10.0,WNW,11.5,-,N/A,,Overcast,300,2013-10-24 20:31:00
4:54 PM,37.9,33.1,83,30.20,10.0,West,11.5,-,N/A,,Overcast,270,2013-10-24 20:54:00
5:54 PM,39.0,33.1,79,30.21,10.0,West,10.4,-,N/A,,Overcast,280,2013-10-24 21:54:00
6:25 PM,39.2,28.4,65,30.21,10.0,WNW,9.2,-,N/A,,Overcast,290,2013-10-24 22:25:00
6:54 PM,37.9,30.0,73,30.24,10.0,West,9.2,-,N/A,,Overcast,280,2013-10-24 22:54:00
7:54 PM,37.0,30.0,76,30.26,10.0,West,6.9,-,N/A,,Overcast,270,2013-10-24 23:54:00
8:54 PM,37.0,28.0,70,30.28,10.0,WNW,9.2,-,N/A,,Overcast,290,2013-10-25 00:54:00
9:54 PM,34.0,26.1,73,30.29,10.0,WNW,8.1,-,N/A,,Scattered Clouds,290,2013-10-25 01:54:00
10:54 PM,35.1,26.1,70,30.30,10.0,West,8.1,-,N/A,,Mostly Cloudy,280,2013-10-25 02:54:00
11:54 PM,33.1,26.1,75,30.31,10.0,West,8.1,-,N/A,,Partly Cloudy,280,2013-10-25 03:54:00